Tracking 31028 objects as of 18-Jul-2025
HD Live streaming from Space Station
objects crossing your sky now

ONEWEB-0570

Track ONEWEB-0570 now!
10-day predictions
ONEWEB-0570 is classified as:


NORAD ID: 55149
Int'l Code: 2023-004K
Perigee: 1,195.9 km
Apogee: 1,197.8 km
Inclination: 87.9 °
Period: 109.2 minutes
Semi major axis: 7567 km
RCS: Unknown
Launch date: January 10, 2023
Source: United Kingdom (UK)
Launch site: AIR FORCE WESTERN TEST RANGE (AFWTR)
Your satellite tracking list
Your tracking list is empty




NASA's NSSDC Master Catalog

Two Line Element Set (TLE):
1 55149U 23004K   25199.04330805  .00000082  00000-0  17580-3 0  9996
2 55149  87.9111  41.8864 0001264  75.4036 284.7237 13.18690396125650
Source of the keplerian elements: AFSPC